Location: Stara Lesna
(49.1528°N, 20.2911°E)
Time: 03:25:45
(UTC+02:00)

Resurs 1-4 Rocket - Pass Details

Date: 21 September 2019
Orbit: 800 x 814 km, 98.6° (Epoch: 12 October)

Event Time Altitude Azimuth Distance (km) Brightness Sun altitude
Rises 01:58:39 0° 19° (NNE) 3,328 6.3 -36.6°
Reaches altitude 10° 02:01:05 10° 25° (NNE) 2,394 5.3 -36.4°
Enters shadow 02:04:07 32° 46° (NE) 1,374 3.7 -36.2°
